WA6MEM Weather Reports


time (UTC)temp
C
wind
direction
speed
KPH
gust
KPH
rain 1hr
cm
rain 24hr
cm
rain mn
cm
humidity
%
barometer
mb
20220124105109 13 26 0.0 0.0 0.00 0.00 0.00 35 1017.4
20220124104549 13 27 0.0 0.0 0.00 0.00 0.00 36 1017.4
20220124104105 13 22 0.0 0.0 0.00 0.00 0.00 36 1017.4
20220124103547 13 15 0.0 0.0 0.00 0.00 0.00 36 1017.4
20220124103134 13 43 0.0 0.0 0.00 0.00 0.00 34 1017.4
20220124102552 13 30 0.0 0.0 0.00 0.00 0.00 34 1017.4
20220124102046 13 32 0.0 0.0 0.00 0.00 0.00 34 1017.4
20220124101632 13 5 0.0 0.0 0.00 0.00 0.00 34 1017.5
20220124101045 13 10 0.0 0.0 0.00 0.00 0.00 33 1017.5
20220124100546 13 18 0.0 0.0 0.00 0.00 0.00 33 1017.5
20220124100110 13 18 0.0 0.0 0.00 0.00 0.00 34 1017.8
20220124095545 13 5 0.0 0.0 0.00 0.00 0.00 33 1017.8
20220124095044 13 342 0.0 0.0 0.00 0.00 0.00 33 1017.8
20220124094612 13 19 0.0 0.0 0.00 0.00 0.00 33 1018.0
20220124094104 13 18 0.0 0.0 0.00 0.00 0.00 33 1018.0
20220124093544 13 17 0.0 0.0 0.00 0.00 0.00 32 1018.0
20220124093140 13 17 0.0 0.0 0.00 0.00 0.00 32 1017.9
20220124092605 13 17 0.0 0.0 0.00 0.00 0.00 32 1017.9
20220124092043 13 11 0.0 0.0 0.00 0.00 0.00 32 1017.9
20220124091547 13 24 0.0 0.0 0.00 0.00 0.00 33 1017.8
20220124091042 14 22 0.0 0.0 0.00 0.00 0.00 32 1017.8
20220124090548 14 360 0.0 0.0 0.00 0.00 0.00 31 1017.8
20220124090125 15 5 0.0 0.0 0.00 0.00 0.00 31 1017.9
20220124085603 14 346 0.0 0.0 0.00 0.00 0.00 31 1017.9
20220124085039 14 5 0.0 0.0 0.00 0.00 0.00 32 1017.9
20220124084601 14 19 0.0 0.0 0.00 0.00 0.00 34 1018.1
20220124084036 13 5 0.0 0.0 0.00 0.00 0.00 37 1018.1
20220124083542 13 360 0.0 0.0 0.00 0.00 0.00 40 1018.1
20220124083047 12 22 0.0 0.0 0.00 0.00 0.00 46 1018.3
20220124082534 12 22 0.0 0.0 0.00 0.00 0.00 46 1018.3
20220124082032 13 22 0.0 0.0 0.00 0.00 0.00 46 1018.3
20220124081556 13 22 0.0 0.0 0.00 0.00 0.00 45 1018.5
20220124081036 13 19 0.0 0.0 0.00 0.00 0.00 44 1018.5
20220124080534 13 22 0.0 0.0 0.00 0.00 0.00 45 1018.5
20220124080042 13 36 0.0 0.0 0.00 0.00 0.00 45 1018.5
20220124075529 13 15 0.0 0.0 0.00 0.00 0.00 44 1018.5
20220124075053 13 19 0.0 0.0 0.00 0.00 0.00 43 1018.5
20220124074613 14 22 0.0 0.0 0.00 0.00 0.00 41 1018.5
20220124074107 14 20 0.0 0.0 0.00 0.00 0.00 39 1018.5
20220124073534 14 22 0.0 0.0 0.00 0.00 0.00 38 1018.5
20220124073040 14 16 0.0 0.0 0.00 0.00 0.00 37 1018.6
20220124072539 14 28 0.0 0.0 0.00 0.00 0.00 38 1018.6
20220124072028 14 38 0.0 0.0 0.00 0.00 0.00 39 1018.6
20220124071551 14 25 0.0 0.0 0.00 0.00 0.00 39 1018.6
20220124071030 14 25 0.0 0.0 0.00 0.00 0.00 38 1018.6
20220124070529 14 5 0.0 0.0 0.00 0.00 0.00 38 1018.6
20220124070057 14 23 0.0 0.0 0.00 0.00 0.00 39 1018.9
20220124065536 14 37 0.0 0.0 0.00 0.00 0.00 39 1018.9
20220124065027 13 13 0.0 0.0 0.00 0.00 0.00 40 1018.9
20220124064604 13 19 0.0 0.0 0.00 0.00 0.00 41 1019.0
20220124064027 13 21 0.0 0.0 0.00 0.00 0.00 41 1019.0
20220124063527 13 23 0.0 0.0 0.00 0.00 0.00 42 1019.0
20220124063044 14 5 0.0 0.0 0.00 0.00 0.00 42 1019.0
20220124062527 14 26 0.0 0.0 0.00 0.00 0.00 41 1019.0
20220124062031 14 20 0.0 0.0 0.00 0.00 0.00 42 1019.0
20220124061527 13 5 0.0 0.0 0.00 0.00 0.00 42 1019.0
20220124061030 13 19 0.0 0.0 0.00 0.00 0.00 43 1019.0
20220124060526 14 37 0.0 0.0 0.00 0.00 0.00 42 1019.0
20220124060110 14 32 0.0 0.0 0.00 0.00 0.00 41 1018.9
20220124055526 14 13 0.0 0.0 0.00 0.00 0.00 43 1018.9
20220124055025 14 5 0.0 0.0 0.00 0.00 0.00 43 1018.9
20220124054605 14 9 0.0 0.0 0.00 0.00 0.00 42 1018.8
20220124054026 14 360 0.0 0.0 0.00 0.00 0.00 42 1018.8
20220124053530 14 5 0.0 0.0 0.00 0.00 0.00 42 1018.8
20220124053040 14 355 0.0 0.0 0.00 0.00 0.00 42 1018.6
20220124052525 14 355 0.0 0.0 0.00 0.00 0.00 42 1018.6
20220124052033 14 360 0.0 0.0 0.00 0.00 0.00 43 1018.6
20220124051525 14 28 0.0 0.0 0.00 0.00 0.00 43 1018.7
20220124051025 14 22 0.0 0.0 0.00 0.00 0.00 43 1018.7
20220124050524 14 40 0.0 0.0 0.00 0.00 0.00 44 1018.7
20220124050036 14 42 0.0 0.0 0.00 0.00 0.00 44 1018.6
20220124045524 14 18 0.0 0.0 0.00 0.00 0.00 44 1018.6
20220124045030 14 19 0.0 0.0 0.00 0.00 0.00 44 1018.6
20220124044544 15 29 0.0 0.0 0.00 0.00 0.00 43 1018.6
20220124044023 15 19 0.0 0.0 0.00 0.00 0.00 42 1018.6
20220124043523 15 346 0.0 0.0 0.00 0.00 0.00 41 1018.6
20220124043025 15 355 0.0 0.0 0.00 0.00 0.00 40 1018.6
20220124042523 15 5 0.0 0.0 0.00 0.00 0.00 39 1018.6
20220124042023 15 360 0.0 0.0 0.00 0.00 0.00 38 1018.6
20220124041523 15 342 0.0 0.0 0.00 0.00 0.00 37 1018.8
20220124041035 15 360 0.0 0.0 0.00 0.00 0.00 38 1018.8
20220124040523 15 36 0.0 0.0 0.00 0.00 0.00 38 1018.8
20220124040032 15 5 0.0 0.0 0.00 0.00 0.00 38 1018.8
20220124035525 15 40 0.0 0.0 0.00 0.00 0.00 38 1018.8
20220124035022 15 309 0.0 0.0 0.00 0.00 0.00 38 1018.8
20220124034534 15 346 0.0 0.0 0.00 0.00 0.00 40 1018.7
20220124034022 15 329 0.0 0.0 0.00 0.00 0.00 41 1018.7
20220124033521 15 344 0.0 0.0 0.00 0.00 0.00 42 1018.7
20220124033035 15 350 0.0 0.0 0.00 0.00 0.00 43 1018.6
20220124032524 15 323 0.0 0.0 0.00 0.00 0.00 41 1018.6
20220124032020 15 334 0.0 0.0 0.00 0.00 0.00 42 1018.6
20220124031531 15 332 0.0 0.0 0.00 0.00 0.00 42 1018.7
20220124031026 15 318 0.0 0.0 0.00 0.00 0.00 42 1018.7
20220124030526 15 320 0.0 0.0 0.00 0.00 0.00 43 1018.7
20220124030127 15 342 0.0 0.0 0.00 0.00 0.00 41 1018.6
20220124025520 15 335 0.0 0.0 0.00 0.00 0.00 40 1018.6
20220124025020 15 297 0.0 0.0 0.00 0.00 0.00 40 1018.6
20220124024523 15 290 0.0 0.0 0.00 0.00 0.00 40 1018.5
20220124024025 15 313 0.0 0.0 0.00 0.00 0.00 40 1018.5
20220124023519 15 306 0.0 0.0 0.00 0.00 0.00 41 1018.5
20220124023019 15 324 0.0 0.0 0.00 0.00 0.00 43 1018.5
20220124022520 15 327 0.0 0.0 0.00 0.00 0.00 44 1018.5
20220124022019 15 321 0.0 0.0 0.00 0.00 0.00 44 1018.5
20220124021519 15 311 0.0 0.0 0.00 0.00 0.00 45 1018.5
20220124021018 15 316 0.0 0.0 0.00 0.00 0.00 43 1018.5
20220124020518 15 310 0.0 0.0 0.00 0.00 0.00 40 1018.5
20220124020051 15 301 0.0 0.0 0.00 0.00 0.00 41 1018.4
20220124015518 15 311 0.0 0.0 0.00 0.00 0.00 39 1018.4
20220124015023 15 280 0.0 0.0 0.00 0.00 0.00 40 1018.4
20220124014522 15 292 0.0 0.0 0.00 0.00 0.00 39 1018.5
20220124014016 15 253 0.0 0.0 0.00 0.00 0.00 37 1018.5
20220124013516 15 320 0.0 0.0 0.00 0.00 0.00 37 1018.5
20220124013016 15 308 0.0 0.0 0.00 0.00 0.00 35 1018.5
20220124012515 15 298 0.0 0.0 0.00 0.00 0.00 35 1018.5
20220124012015 15 259 0.0 0.0 0.00 0.00 0.00 35 1018.5
20220124011542 16 269 0.0 0.0 0.00 0.00 0.00 34 1018.4
20220124011014 16 262 0.0 0.0 0.00 0.00 0.00 35 1018.4
20220124010514 16 273 0.0 0.0 0.00 0.00 0.00 34 1018.4
20220124010017 16 294 0.0 0.0 0.00 0.00 0.00 33 1018.4
20220124005514 16 286 0.0 0.0 0.00 0.00 0.00 32 1018.4
20220124005018 16 303 0.0 0.0 0.00 0.00 0.00 31 1018.4
20220124004523 16 292 0.0 0.0 0.00 0.00 0.00 30 1018.5
20220124004034 16 291 0.0 0.0 0.00 0.00 0.00 29 1018.5
20220124003513 16 296 0.0 0.0 0.00 0.00 0.00 31 1018.5
20220124003016 16 259 0.0 0.0 0.00 0.00 0.00 30 1018.5
20220124002513 16 288 0.0 0.0 0.00 0.00 0.00 30 1018.5
20220124002013 16 277 0.0 0.0 0.00 0.00 0.00 30 1018.5
20220124001528 17 270 0.0 0.0 0.00 0.00 0.00 29 1018.5
20220124001018 17 262 0.0 0.0 0.00 0.00 0.00 28 1018.5
20220124000513 17 246 0.0 0.0 0.00 0.00 0.00 27 1018.5
20220124000038 17 250 0.0 0.0 0.00 0.00 0.00 26 1018.6
20220123235516 17 284 0.0 0.0 0.00 0.00 0.00 26 1018.6
20220123235017 18 280 0.0 0.0 0.00 0.00 0.00 26 1018.6
20220123234621 18 261 0.0 0.0 0.00 0.00 0.00 26 1018.5
20220123234012 18 260 0.0 0.0 0.00 0.00 0.00 26 1018.5
20220123233511 18 293 0.0 0.0 0.00 0.00 0.00 26 1018.5
20220123233012 18 209 0.0 0.0 0.00 0.00 0.00 27 1018.6
20220123232511 18 214 0.0 0.0 0.00 0.00 0.00 25 1018.6
20220123232011 19 239 0.0 0.0 0.00 0.00 0.00 25 1018.6
20220123231527 19 204 0.0 0.0 0.00 0.00 0.00 25 1018.5
20220123231011 19 194 0.0 0.0 0.00 0.00 0.00 26 1018.5
20220123230511 19 255 0.0 0.0 0.00 0.00 0.00 26 1018.5
20220123230011 19 236 0.0 0.0 0.00 0.00 0.00 27 1018.5
20220123225524 19 163 0.0 0.0 0.00 0.00 0.00 27 1018.5
20220123225016 19 185 0.0 0.0 0.00 0.00 0.00 27 1018.5
20220123224514 19 242 0.0 0.0 0.00 0.00 0.00 26 1018.6
20220123224010 19 269 0.0 0.0 0.00 0.00 0.00 26 1018.6
20220123223512 18 227 0.0 0.0 0.00 0.00 0.00 27 1018.6
20220123223019 18 205 0.0 0.0 0.00 0.00 0.00 27 1018.6
20220123222510 18 208 0.0 0.0 0.00 0.00 0.00 29 1018.6
20220123222013 18 190 0.0 0.0 0.00 0.00 0.00 31 1018.6
20220123221522 18 221 0.0 0.0 0.00 0.00 0.00 27 1018.7
20220123221009 18 225 0.0 0.0 0.00 0.00 0.00 28 1018.7
20220123220529 18 216 0.0 0.0 0.00 0.00 0.00 28 1018.7
20220123220009 19 186 0.0 0.0 0.00 0.00 0.00 27 1018.7
20220123215509 19 190 0.0 0.0 0.00 0.00 0.00 28 1018.7
20220123215014 18 190 0.0 0.0 0.00 0.00 0.00 27 1018.7
20220123214527 18 202 0.0 0.0 0.00 0.00 0.00 26 1019.1
20220123214007 18 172 0.0 0.0 0.00 0.00 0.00 29 1019.1
20220123213507 18 144 0.0 0.0 0.00 0.00 0.00 30 1019.1
20220123213007 18 206 0.0 0.0 0.00 0.00 0.00 28 1019.1
20220123212506 19 190 0.0 0.0 0.00 0.00 0.00 27 1019.1
20220123212006 19 212 0.0 0.0 0.00 0.00 0.00 26 1019.1
20220123211528 19 306 0.0 0.0 0.00 0.00 0.00 25 1019.2
20220123211004 19 242 0.0 0.0 0.00 0.00 0.00 24 1019.2
20220123210503 19 280 0.0 0.0 0.00 0.00 0.00 24 1019.2
20220123210004 18 288 0.0 0.0 0.00 0.00 0.00 25 1019.4
20220123205502 19 284 0.0 0.0 0.00 0.00 0.00 24 1019.4
20220123205003 19 261 0.0 0.0 0.00 0.00 0.00 24 1019.4
20220123204511 19 285 0.0 0.0 0.00 0.00 0.00 24 1019.7
20220123204005 19 182 0.0 0.0 0.00 0.00 0.00 26 1019.7
20220123203657 19 218 0.0 0.0 0.00 0.00 0.00 26 1019.7
20220123203123 18 202 0.0 0.0 0.00 0.00 0.00 26 1019.7
20220123202604 18 304 0.0 0.0 0.00 0.00 0.00 24 1019.7
20220123202059 18 252 0.0 0.0 0.00 0.00 0.00 27 1019.7
20220123201634 18 218 0.0 0.0 0.00 0.00 0.00 26 1019.9
20220123201059 18 224 0.0 0.0 0.00 0.00 0.00 26 1019.9
20220123200558 18 193 0.0 0.0 0.00 0.00 0.00 27 1019.9
20220123200129 18 211 0.0 0.0 0.00 0.00 0.00 27 1020.3
20220123195605 18 239 0.0 0.0 0.00 0.00 0.00 25 1020.3
20220123195059 18 235 0.0 0.0 0.00 0.00 0.00 27 1020.3
20220123194624 18 312 0.0 0.0 0.00 0.00 0.00 25 1020.4
20220123194056 18 291 0.0 0.0 0.00 0.00 0.00 26 1020.4
20220123193600 18 278 0.0 0.0 0.00 0.00 0.00 26 1020.4
20220123193339 18 251 0.0 0.0 0.00 0.00 0.00 25 1020.8
20220123192556 18 194 0.0 0.0 0.00 0.00 0.00 27 1020.8
20220123192055 18 209 0.0 0.0 0.00 0.00 0.00 27 1020.8
20220123191637 19 199 0.0 0.0 0.00 0.00 0.00 27 1020.9
20220123191055 19 220 0.0 0.0 0.00 0.00 0.00 28 1020.9
20220123190554 18 233 0.0 0.0 0.00 0.00 0.00 26 1020.9
20220123190147 18 173 0.0 0.0 0.00 0.00 0.00 25 1020.9
20220123185558 18 229 0.0 0.0 0.00 0.00 0.00 28 1020.9
20220123185056 18 254 0.0 0.0 0.00 0.00 0.00 26 1020.9
20220123184700 18 264 0.0 0.0 0.00 0.00 0.00 25 1021.2
20220123184057 18 159 0.0 0.0 0.00 0.00 0.00 28 1021.2
20220123183554 18 195 0.0 0.0 0.00 0.00 0.00 28 1021.2
20220123183208 18 194 0.0 0.0 0.00 0.00 0.00 29 1021.2
20220123182550 18 190 0.0 0.0 0.00 0.00 0.00 28 1021.2
20220123182119 18 210 0.0 0.0 0.00 0.00 0.00 28 1021.2
20220123181608 18 200 0.0 0.0 0.00 0.00 0.00 28 1021.2
20220123181118 18 249 0.0 0.0 0.00 0.00 0.00 26 1021.2
20220123180557 18 235 0.0 0.0 0.00 0.00 0.00 27 1021.2
20220123180110 18 238 0.0 0.0 0.00 0.00 0.00 26 1021.0
20220123175549 18 218 0.0 0.0 0.00 0.00 0.00 29 1021.0
20220123175058 18 217 0.0 0.0 0.00 0.00 0.00 31 1021.0
20220123174601 18 220 0.0 0.0 0.00 0.00 0.00 30 1021.2
20220123174046 17 218 0.0 0.0 0.00 0.00 0.00 30 1021.2
20220123173546 17 211 0.0 0.0 0.00 0.00 0.00 31 1021.2
20220123173055 17 198 0.0 0.0 0.00 0.00 0.00 31 1020.9
20220123172552 17 198 0.0 0.0 0.00 0.00 0.00 29 1020.9
20220123172045 17 199 0.0 0.0 0.00 0.00 0.00 30 1020.9
20220123171616 17 240 0.0 0.0 0.00 0.00 0.00 29 1020.9
20220123171109 17 240 0.0 0.0 0.00 0.00 0.00 26 1020.9
20220123170547 17 240 0.0 0.0 0.00 0.00 0.00 31 1020.9
20220123170115 17 240 0.0 0.0 0.00 0.00 0.00 33 1020.8
20220123165541 17 240 0.0 0.0 0.00 0.00 0.00 29 1020.8
20220123165055 17 329 0.0 0.0 0.00 0.00 0.00 33 1020.8
20220123164626 16 329 0.0 0.0 0.00 0.00 0.00 31 1020.8
20220123164038 16 329 0.0 0.0 0.00 0.00 0.00 31 1020.8
20220123163536 16 329 0.0 0.0 0.00 0.00 0.00 31 1020.8
20220123163208 16 329 0.0 0.0 0.00 0.00 0.00 31 1020.9
20220123162606 16 329 0.0 0.0 0.00 0.00 0.00 32 1020.9
20220123162034 15 329 0.0 0.0 0.00 0.00 0.00 32 1020.9
20220123161543 15 329 0.0 0.0 0.00 0.00 0.00 30 1020.6
20220123161030 15 329 0.0 0.0 0.00 0.00 0.00 30 1020.6
20220123160530 14 329 0.0 0.0 0.00 0.00 0.00 31 1020.6
20220123160029 14 329 0.0 0.0 0.00 0.00 0.00 31 1020.6
20220123155527 13 329 0.0 0.0 0.00 0.00 0.00 30 1020.6
20220123155032 13 329 0.0 0.0 0.00 0.00 0.00 30 1020.6
20220123154537 13 329 0.0 0.0 0.00 0.00 0.00 30 1020.5
20220123154049 13 329 0.0 0.0 0.00 0.00 0.00 30 1020.5
20220123153534 13 329 0.0 0.0 0.00 0.00 0.00 30 1020.5
20220123153143 13 329 0.0 0.0 0.00 0.00 0.00 30 1020.6
20220123152536 13 329 0.0 0.0 0.00 0.00 0.00 30 1020.6
20220123152035 12 328 0.0 0.0 0.00 0.00 0.00 31 1020.6
20220123151529 12 329 0.0 0.0 0.00 0.00 0.00 31 1020.5
20220123151026 12 329 0.0 0.0 0.00 0.00 0.00 32 1020.5
20220123150526 12 341 0.0 0.0 0.00 0.00 0.00 34 1020.5
20220123150030 12 340 0.0 0.0 0.00 0.00 0.00 33 1020.3
20220123145546 11 340 0.0 0.0 0.00 0.00 0.00 34 1020.3
20220123145024 11 11 0.0 0.0 0.00 0.00 0.00 36 1020.3
20220123144609 11 128 0.0 0.0 0.00 0.00 0.00 35 1020.1
20220123144024 11 128 0.0 0.0 0.00 0.00 0.00 35 1020.1
20220123143523 11 128 0.0 0.0 0.00 0.00 0.00 35 1020.1
20220123143138 11 128 0.0 0.0 0.00 0.00 0.00 35 1019.8
20220123142522 11 128 0.0 0.0 0.00 0.00 0.00 36 1019.8
20220123142039 11 128 0.0 0.0 0.00 0.00 0.00 35 1019.8
20220123141521 11 128 0.0 0.0 0.00 0.00 0.00 35 1019.6
20220123141021 11 128 0.0 0.0 0.00 0.00 0.00 34 1019.6
20220123140520 12 128 0.0 0.0 0.00 0.00 0.00 34 1019.6
20220123140030 12 128 0.0 0.0 0.00 0.00 0.00 33 1019.5
20220123135531 12 128 0.0 0.0 0.00 0.00 0.00 33 1019.5
20220123135019 12 128 0.0 0.0 0.00 0.00 0.00 32 1019.5
20220123134526 12 128 0.0 0.0 0.00 0.00 0.00 32 1019.4
20220123134017 12 128 0.0 0.0 0.00 0.00 0.00 31 1019.4
20220123133520 12 128 0.0 0.0 0.00 0.00 0.00 32 1019.4
20220123133030 12 128 0.0 0.0 0.00 0.00 0.00 31 1019.1
20220123132516 12 128 0.0 0.0 0.00 0.00 0.00 31 1019.1
20220123132039 12 142 0.0 0.0 0.00 0.00 0.00 31 1019.1
20220123131522 13 142 0.0 0.0 0.00 0.00 0.00 30 1019.0
20220123131022 13 142 0.0 0.0 0.00 0.00 0.00 30 1019.0
20220123130522 13 142 0.0 0.0 0.00 0.00 0.00 30 1019.0
20220123130101 13 142 0.0 0.0 0.00 0.00 0.00 29 1018.8
20220123125533 13 232 0.0 0.0 0.00 0.00 0.00 30 1018.8
20220123125021 12 199 0.0 0.0 0.00 0.00 0.00 31 1018.8
20220123124537 12 63 0.0 0.0 0.00 0.00 0.00 30 1018.8
20220123124018 13 298 0.0 0.0 0.00 0.00 0.00 29 1018.8
20220123123514 12 298 0.0 0.0 0.00 0.00 0.00 29 1018.8
20220123123054 12 298 0.0 0.0 0.00 0.00 0.00 29 1018.8
20220123122514 12 298 0.0 0.0 0.00 0.00 0.00 30 1018.8
20220123122014 12 296 0.0 0.0 0.00 0.00 0.00 29 1018.8
20220123121514 12 296 0.0 0.0 0.00 0.00 0.00 29 1018.7
20220123121013 13 296 0.0 0.0 0.00 0.00 0.00 30 1018.7
20220123120513 13 296 0.0 0.0 0.00 0.00 0.00 29 1018.7
20220123120016 13 296 0.0 0.0 0.00 0.00 0.00 30 1018.6
20220123115512 13 296 0.0 0.0 0.00 0.00 0.00 29 1018.6
20220123115012 13 296 0.0 0.0 0.00 0.00 0.00 29 1018.6
20220123114530 13 296 0.0 0.0 0.00 0.00 0.00 29 1018.7
20220123114011 13 296 0.0 0.0 0.00 0.00 0.00 30 1018.7
20220123113511 13 296 0.0 0.0 0.00 0.00 0.00 29 1018.7
20220123113027 13 296 0.0 0.0 0.00 0.00 0.00 29 1018.4
20220123112511 13 296 0.0 0.0 0.00 0.00 0.00 29 1018.4
20220123112011 13 296 0.0 0.0 0.00 0.00 0.00 29 1018.4
20220123111512 13 284 0.0 0.0 0.00 0.00 0.00 29 1018.3
20220123111025 14 284 0.0 0.0 0.00 0.00 0.00 28 1018.3
20220123110530 14 284 0.0 0.0 0.00 0.00 0.00 28 1018.3
20220123110010 14 284 0.0 0.0 0.00 0.00 0.00 28 1018.4
20220123105509 13 285 0.0 0.0 0.00 0.00 0.00 28 1018.4